| time (UTC) | temp C | wind direction | speed KPH | gust KPH | rain 1hr cm | rain 24hr cm | rain mn cm | humidity % | barometer mb |
| 20260905123442 | 13 | 67 | 1.6 | 8.0 | 0.00 | 0.00 | 0.00 | 85 | |
| 20260905122441 | 13 | 59 | 0.0 | 0.0 | 0.00 | 0.00 | 0.00 | 100 | |
| 20260905121441 | 13 | 59 | 0.0 | 0.0 | 0.00 | 0.00 | 0.00 | 81 | |
| 20260905120440 | 13 | 59 | 0.0 | 6.4 | 0.00 | 0.00 | 0.00 | 80 | |
| 20260905115441 | 13 | 59 | 4.8 | 32.2 | 0.00 | 0.00 | 0.00 | 67 | |
| 20260905114439 | 13 | 67 | 8.0 | 32.2 | 0.00 | 0.00 | 0.00 | 69 | |
| 20260905113438 | 13 | 63 | 8.0 | 19.3 | 0.00 | 0.00 | 0.00 | 78 | |
| 20260905112441 | 13 | 53 | 0.0 | 11.3 | 0.00 | 0.00 | 0.00 | 69 | |
| 20260905111437 | 13 | 56 | 3.2 | 12.9 | 0.00 | 0.00 | 0.00 | 78 | |
| 20260905110438 | 13 | 49 | 1.6 | 16.1 | 0.00 | 0.00 | 0.00 | 68 | |
| 20260905105323 | 13 | 50 | 4.8 | 25.7 | 0.00 | 0.00 | 0.00 | 65 | |
| 20260905104322 | 13 | 45 | 3.2 | 33.8 | 0.00 | 0.00 | 0.00 | 66 | |
| 20260905103321 | 13 | 63 | 9.7 | 33.8 | 0.00 | 0.00 | 0.00 | 65 | |
| 20260905102321 | 13 | 52 | 22.5 | 37.0 | 0.00 | 0.00 | 0.00 | 65 | |
| 20260905101320 | 13 | 84 | 14.5 | 38.6 | 0.00 | 0.00 | 0.00 | 65 | |
| 20260905100320 | 13 | 60 | 20.9 | 38.6 | 0.00 | 0.00 | 0.00 | 100 | |
| 20260905095319 | 13 | 99 | 12.9 | 40.2 | 0.00 | 0.00 | 0.00 | 64 | |
| 20260905094319 | 13 | 36 | 17.7 | 32.2 | 0.00 | 0.00 | 0.00 | 64 | |
| 20260905093318 | 13 | 53 | 11.3 | 33.8 | 0.00 | 0.00 | 0.00 | 100 | |
| 20260905092317 | 12 | 56 | 8.0 | 27.4 | 0.00 | 0.00 | 0.00 | 75 | |
| 20260905091317 | 11 | 71 | 9.7 | 51.5 | 0.00 | 0.00 | 0.00 | 76 | |
| 20260905090316 | 11 | 57 | 16.1 | 33.8 | 0.00 | 0.00 | 0.00 | 81 | |
| 20260905085316 | 11 | 46 | 8.0 | 37.0 | 0.00 | 0.00 | 0.00 | 74 | |
| 20260905084315 | 12 | 46 | 8.0 | 45.1 | 0.00 | 0.00 | 0.00 | 73 | |
| 20260905083314 | 12 | 52 | 19.3 | 59.5 | 0.00 | 0.00 | 0.00 | 70 | |
| 20260905082314 | 12 | 49 | 12.9 | 51.5 | 0.00 | 0.00 | 0.00 | 72 | |
| 20260905081313 | 10 | 63 | 11.3 | 45.1 | 0.00 | 0.00 | 0.00 | 82 | |
| 20260905080313 | 9 | 68 | 9.7 | 33.8 | 0.00 | 0.00 | 0.00 | 99 | |
| 20260905075312 | 8 | 68 | 6.4 | 27.4 | 0.00 | 0.00 | 0.00 | 100 | |
| 20260905074311 | 8 | 78 | 8.0 | 20.9 | 0.00 | 0.00 | 0.00 | 100 | |
| 20260905073314 | 8 | 78 | 9.7 | 24.1 | 0.00 | 0.00 | 0.00 | 100 | |
| 20260905073312 | 8 | 78 | 9.7 | 24.1 | 0.00 | 0.00 | 0.00 | 100 | |
| 20260905072312 | 8 | 67 | 6.4 | 14.5 | 0.00 | 0.00 | 0.00 | 100 | |
| 20260905071310 | 8 | 59 | 0.0 | 0.0 | 0.00 | 0.00 | 0.00 | 100 | |
| 20260905070310 | 8 | 59 | 0.0 | 6.4 | 0.00 | 0.00 | 0.00 | 100 | |
| 20260905065308 | 8 | 64 | 0.0 | 0.0 | 0.00 | 0.00 | 0.00 | 100 | |
| 20260905064308 | 8 | 64 | 0.0 | 0.0 | 0.00 | 0.00 | 0.00 | 100 | |
| 20260905063307 | 8 | 64 | 0.0 | 0.0 | 0.00 | 0.00 | 0.00 | 100 | |
| 20260905062307 | 8 | 64 | 0.0 | 0.0 | 0.00 | 0.00 | 0.00 | 100 | |
| 20260905061306 | 8 | 64 | 0.0 | 3.2 | 0.00 | 0.00 | 0.00 | 100 | |
| 20260905060306 | 9 | 64 | 0.0 | 11.3 | 0.00 | 0.00 | 0.00 | 100 | |
| 20260905055306 | 10 | 63 | 0.0 | 6.4 | 0.00 | 0.00 | 0.00 | 100 | |
| 20260905054304 | 10 | 63 | 0.0 | 0.0 | 0.00 | 0.00 | 0.00 | 100 | |
| 20260905053304 | 10 | 63 | 0.0 | 0.0 | 0.00 | 0.00 | 0.00 | 100 | |
| 20260904140222 | 22 | 74 | 4.8 | 27.4 | 0.00 | 0.00 | 0.00 | 32 | |
| 20260904135221 | 21 | 45 | 0.0 | 29.0 | 0.00 | 0.00 | 0.00 | 33 | |
| 20260904134221 | 22 | 56 | 3.2 | 20.9 | 0.00 | 0.00 | 0.00 | 32 | |
| 20260904133220 | 22 | 49 | 6.4 | 19.3 | 0.00 | 0.00 | 0.00 | 34 | |
| 20260904132219 | 21 | 33 | 3.2 | 27.4 | 0.00 | 0.00 | 0.00 | 34 | |
| 20260904131222 | 21 | 66 | 1.6 | 19.3 | 0.00 | 0.00 | 0.00 | 35 | |
| 20260904130220 | 21 | 39 | 1.6 | 27.4 | 0.00 | 0.00 | 0.00 | 35 | |
| 20260904125220 | 21 | 49 | 22.5 | 22.5 | 0.00 | 0.00 | 0.00 | 35 | |
| 20260904124218 | 20 | 45 | 3.2 | 32.2 | 0.00 | 0.00 | 0.00 | 100 |